Overview Statistics Trail Chart Weather Telemetry Raw packets
 

This is the latest recevied weather packets stored in our database for station/object K9MWD. If no packets are shown the sender has not sent any weather packets the latest 10 day(s).

<< 40 41 42 43 44 45 46 >>
Time Temp. Humidity Pressure Rain* Wind** Luminosity Snow
1788362681 31.67° C 62% 1016.2 hPa 0 mm - 588 W/m² -
1788362376 31.11° C 64% 1016.3 hPa 0 mm - 571 W/m² -
1788362073 30.56° C 63% 1016.2 hPa 0 mm - 553 W/m² -
1788361772 30° C 66% 1016.1 hPa 0 mm - 534 W/m² -
1788361469 30° C 67% 1016.2 hPa 0 mm - 517 W/m² -
1788361168 30.56° C 67% 1016.4 hPa 0 mm - 504 W/m² -
1788360864 31.11° C 65% 1016.3 hPa 0 mm - 483 W/m² -
1788360564 30.56° C 65% 1016.4 hPa 0 mm - 466 W/m² -
1788360260 30.56° C 65% 1016.3 hPa 0 mm - 448 W/m² -
1788359960 30° C 67% 1016.4 hPa 0 mm - 428 W/m² -
1788359655 30° C 67% 1016.2 hPa 0 mm - 408 W/m² -
1788359350 30° C 66% 1016.2 hPa 0 mm - 391 W/m² -
1788359046 28.89° C 69% 1016.3 hPa 0 mm - 374 W/m² -
1788358741 28.89° C 70% 1016.3 hPa 0 mm - 353 W/m² -
1788358437 28.89° C 69% 1016.2 hPa 0 mm - 333 W/m² -
1788358136 28.89° C 70% 1016.1 hPa 0 mm - 315 W/m² -
1788357832 28.33° C 73% 1016.2 hPa 0 mm - 296 W/m² -
1788357532 28.33° C 72% 1016.2 hPa 0 mm - 276 W/m² -
1788357227 28.33° C 71% 1016.3 hPa 0 mm - 256 W/m² -
1788356926 28.33° C 72% 1016.1 hPa 0 mm - 238 W/m² -
1788356622 28.33° C 70% 1016.3 hPa 0 mm - 249 W/m² -
1788356317 27.78° C 72% 1016.2 hPa 0 mm - 202 W/m² -
1788356017 27.78° C 72% 1016.1 hPa 0 mm - 182 W/m² -
1788355712 28.33° C 70% 1016.1 hPa 0 mm - 163 W/m² -
1788355407 27.78° C 71% 1016 hPa 0 mm - 148 W/m² -

* Rain latest hour (hover to see other rain measurements)
** Current wind speed in m/s (hover to see current wind gust speed)